Regional Weather Roundup
Issued by NWS

Home | Current Version | Previous Version | Graphics & Text | Print | Product List | Glossary On
Versions: 1 2 3 4 5 6 7 8 9 10 11 12 13 14 15 16 17 18 19 20 21 22 23 24 25 26 27 28 29 30 31 32 33 34 35 36 37 38 39 40 41 42 43 44 45 46 47 48 49 50
000
ASUS45 KSLC 271410
RWRUT

UTAH REGIONAL WEATHER ROUNDUP
NATIONAL WEATHER SERVICE SALT LAKE CITY UT
700 AM MST THU NOV 27 2014

UTZ001>011-023>025-271500-

NORTHERN UTAH

CITY           SKY/WX    TMP DP  RH WIND       PRES   REMARKS
BRIGHAM CITY   CLOUDY    41  28  60 W3        30.30R
HILL AFB       CLOUDY    42  24  50 SE8       30.29S
LOGAN          CLEAR     39  28  64 CALM      30.27S
OGDEN          CLOUDY    40  26  57 S7        30.28S
PROVO AIRPORT  PTCLDY    30  25  80 CALM      30.37S
SALT LAKE CITY CLOUDY    46  26  45 SE15G23   30.28S
VERNAL         MOCLDY    27  21  78 W5        30.40S WCI  22
WENDOVER       CLOUDY    34  25  69 CALM      30.28S
HEBER CITY     PTCLDY    21  19  93 S3        30.39S
WEST JORDAN    CLEAR     45  30  57 S18       30.30F

$$

UTZ012>022-026-027-271500-

SOUTHERN/CENTRAL UTAH

CITY           SKY/WX    TMP DP  RH WIND       PRES   REMARKS
BLANDING       MOCLDY    32  20  62 CALM      30.54R
BRYCE CANYON   PTCLDY    23  10  57 W10       30.49F WCI  12
CEDAR CITY     MOCLDY    27  17  66 W3        30.38F
DELTA          MOCLDY    33  26  75 NE5       30.36F WCI  28
MILFORD        MOCLDY    29  18  63 S13       30.37S WCI  19
MOAB/CYNLANDS  CLEAR     32  21  64 CALM      30.44R
PRICE          PTCLDY    30  21  69 NE8       30.43S WCI  22
ST GEORGE      MOSUNNY   34  12  40 CALM      30.40S
KANAB          PTCLDY    21  12  68 NE5       30.47R WCI  15

$$

REGIONAL REPORTS     COLORADO/ARIZONA

CITY           SKY/WX    TMP DP  RH WIND       PRES   REMARKS
CRAIG, CO      CLOUDY    24  21  88 CALM      30.40S
GRAND JUNCTION PTCLDY    25  22  88 CALM      30.47R
RIFLE          PTCLDY    22  19  89 CALM      30.51S
MONTROSE       PTCLDY    23  19  85 SE8       30.51S WCI  14
CORTEZ         CLEAR     18  14  84 CALM      30.49R
PAGE, AZ       CLOUDY    35  16  45 CALM      30.44S
GRAND CANYON   PTCLDY    15   7  70 CALM      30.47R
KINGMAN        PTCLDY    40  16  37 SE7       30.31R
FLAGSTAFF      PTCLDY    22  12  65 CALM      30.47R

$$

REGIONAL REPORTS    NEVADA/IDAHO/WYOMING

CITY           SKY/WX    TMP DP  RH WIND       PRES   REMARKS
LAS VEGAS, NV  CLEAR     45  20  36 SW9       30.27R
ELY            MOCLDY    28  15  58 S9        30.39F WCI  19
ELKO           CLOUDY    33  28  81 CALM      30.30R
POCATELLO, ID  CLEAR     52  26  36 S16G24    30.19R
BURLEY         CLOUDY    47  29  49 SW12      30.19R
EVANSTON, WY   MOCLDY    34  21  59 SW17      30.32S WCI  23
ROCK SPRINGS   CLOUDY    38  18  44 CALM      30.31S

$$



USA.gov is the U.S. government's official web portal to all federal, state and local government web resources and services.